Stations météo

Publicité
Dorans, France (7296): Température de l'air & dewpoint: 15.01.2018 15:00:00 - 21.01.2018 15:00:00 (CET)Dorans, France (7296): Température de l'air 5cm: 15.01.2018 15:00:00 - 21.01.2018 15:00:00 (CET)Dorans, France (7296): Température de l'air -20cm & Température de l'air -100cm: 15.01.2018 15:00:00 - 21.01.2018 15:00:00 (CET)Dorans, France (7296): Vitesse du vent & gusts: 15.01.2018 15:00:00 - 21.01.2018 15:00:00 (CET)Dorans, France (7296): Direction du vent: 15.01.2018 15:00:00 - 21.01.2018 15:00:00 (CET)Dorans, France (7296): reduced air pressure: 15.01.2018 15:00:00 - 21.01.2018 15:00:00 (CET)Dorans, France (7296): visibility: 15.01.2018 15:00:00 - 21.01.2018 15:00:00 (CET)Dorans, France (7296): Quantités de précipitations: 15.01.2018 15:00:00 - 21.01.2018 15:00:00 (CET)
Date & Time tt [°C] td [°C] tt 5cm [°C] tt -20cm [°C] tt -100cm [°C] ff [km/h] ff [knt] fx [km/h] fx [knt] dd ppp [hPa] vv [km] rr [mm]
21.01.2018 15:00:00 4,1 0,4 4,6 5,2 6,8 12 6 24 13 W 1019,4 20 0,0
21.01.2018 14:00:00 4,3 1,0 4,6 5,2 6,8 9 5 22 12 W 1019,2 20 0,0
21.01.2018 13:00:00 3,9 0,1 4,6 5,2 6,8 9 5 22 12 W 1019,4 20 0,0
21.01.2018 12:00:00 3,9 0,1 4,2 5,2 6,9 8 4 22 12 WNW 1019,3 20 0,0
21.01.2018 11:00:00 3,6 1,1 3,7 5,2 6,9 9 5 27 15 WNW 1019,1 20 0,0
21.01.2018 10:00:00 3,5 1,5 3,3 5,2 6,9 12 6 30 16 WNW 1017,7 20 0,0
21.01.2018 09:00:00 3,8 2,3 3,3 5,3 6,9 13 7 26 14 W 1016,6 20 0,0
21.01.2018 08:00:00 4,3 2,8 3,6 5,3 6,9 13 7 34 18 WNW 1014,9 20 0,0
21.01.2018 07:00:00 4,8 2,8 4,1 5,3 6,9 13 7 42 23 W 1013,6 20 0,0
21.01.2018 06:00:00 5,2 3,0 4,8 5,2 6,9 13 7 29 16 W 1012,3 20 0,0
21.01.2018 05:00:00 5,4 3,4 4,8 5,2 6,9 14 7 43 23 W 1011,1 20 0,0
21.01.2018 04:00:00 6,0 3,7 5,2 5,2 6,9 18 10 44 24 WNW 1009,5 20 0,4
21.01.2018 03:00:00 6,7 5,3 6,0 5,1 6,9 17 9 49 26 W 1007,9 17 0,4
21.01.2018 02:00:00 6,9 5,7 6,2 5,1 6,9 21 12 48 26 W 1005,8 20 0,0
21.01.2018 01:00:00 7,0 5,9 6,2 5,1 6,9 22 12 49 26 W 1004,4 20 1,0
21.01.2018 00:00:00 6,9 5,8 6,2 5,0 6,9 23 12 48 26 W 1003,3 7 2,4
20.01.2018 23:00:00 7,5 6,3 6,7 4,9 6,9 23 13 44 24 W 1002,0 12 1,2
20.01.2018 22:00:00 7,7 6,2 6,7 4,9 6,9 26 14 55 30 W 1002,0 11 5,8
20.01.2018 21:00:00 7,9 7,0 6,9 4,8 6,9 17 9 61 33 WSW 1000,9 4,9 4,1
20.01.2018 20:00:00 7,7 6,6 6,1 4,8 6,9 32 17 55 30 WSW 1001,3 9 1,0
20.01.2018 19:00:00 6,6 5,7 5,3 4,8 6,9 29 16 69 37 WSW 1001,4 3,7 0,4
20.01.2018 18:00:00 5,9 4,7 4,8 4,7 6,9 28 15 61 33 WSW 1001,2 6 0,2
20.01.2018 17:00:00 5,6 3,9 4,1 4,7 6,9 27 15 61 33 WSW 1000,9 20 0,0
20.01.2018 16:00:00 4,6 3,3 3,6 4,7 6,9 15 8 34 18 WSW 1002,2 11 0,4
20.01.2018 15:00:00 4,1 2,3 3,4 4,6 6,9 13 7 37 20 WSW 1003,7 16 1,0
20.01.2018 14:00:00 4,7 1,9 3,6 4,6 6,9 16 9 37 20 SW 1005,1 20 0,4
20.01.2018 13:00:00 4,9 1,0 4,6 4,6 6,9 16 9 32 17 SW 1006,8 20 0,0
20.01.2018 12:00:00 4,0 1,5 3,0 4,6 6,9 13 7 32 17 WSW 1009,6 20 0,0
20.01.2018 11:00:00 3,1 1,8 2,4 4,6 6,9 18 10 36 20 SW 1012,2 20 0,2
20.01.2018 10:00:00 2,7 1,5 2,1 4,6 6,9 18 10 46 25 SW 1013,6 20 0,2
20.01.2018 09:00:00 2,7 1,4 2,1 4,7 6,9 19 10 42 23 SW 1014,6 20 0,4
20.01.2018 08:00:00 2,9 1,4 2,1 4,7 6,9 18 10 40 22 WSW 1014,9 17 0,0
20.01.2018 07:00:00 2,8 1,3 1,9 4,7 6,9 16 8 31 17 WSW 1015,6 20 0,0
20.01.2018 06:00:00 2,6 1,4 1,8 4,8 6,9 17 9 38 21 WSW 1016,0 20 0,2
20.01.2018 05:00:00 2,6 1,1 1,8 4,8 6,9 16 9 41 22 SW 1016,3 20 0,2
20.01.2018 04:00:00 2,6 1,0 1,6 4,8 6,9 19 10 35 19 WSW 1016,9 20 0,0
20.01.2018 03:00:00 2,4 0,8 1,8 4,9 6,9 16 9 36 19 SW 1017,6 20 0,0
20.01.2018 02:00:00 2,4 0,8 1,8 4,9 6,9 17 9 35 19 SW 1017,8 20 0,0
20.01.2018 01:00:00 2,5 0,9 1,6 5,0 6,9 19 11 32 18 SW 1018,3 20 0,0
20.01.2018 00:00:00 2,7 0,9 1,8 5,0 6,9 17 9 35 19 W 1018,4 20 0,0
19.01.2018 23:00:00 2,4 1,1 1,5 5,1 6,9 18 10 38 20 W 1017,9 20 0,0
19.01.2018 22:00:00 2,4 1,1 1,8 5,1 6,9 18 10 34 19 W 1017,4 20 0,0
19.01.2018 21:00:00 2,6 1,3 1,8 5,2 6,9 15 8 31 17 W 1016,7 20 0,0
19.01.2018 20:00:00 2,6 1,3 1,7 5,2 6,9 17 9 43 23 W 1016,1 20 0,8
19.01.2018 19:00:00 3,5 1,5 2,3 5,2 6,9 16 9 31 17 WSW 1015,0 17 0,0
19.01.2018 18:00:00 3,6 1,5 2,1 5,2 6,9 16 9 48 26 WSW 1014,3 20 0,2
19.01.2018 17:00:00 5,0 0,9 3,4 5,2 6,9 21 11 39 21 SW 1013,9 20 0,0
19.01.2018 16:00:00 4,8 1,8 2,9 5,2 6,9 10 5 31 17 W 1014,2 20 0,6
19.01.2018 15:00:00 4,6 1,1 3,7 5,2 7,0 13 7 44 24 W 1014,5 20 0,0
19.01.2018 14:00:00 5,6 1,1 5,6 5,1 6,9 12 7 34 19 WSW 1014,5 20 0,0
19.01.2018 13:00:00 5,5 1,2 5,1 5,0 6,9 19 10 36 19 W 1015,0 20 0,0
19.01.2018 12:00:00 4,8 1,3 5,2 5,0 6,9 18 10 36 20 WSW 1016,1 20 0,0
19.01.2018 11:00:00 4,8 1,6 5,4 5,0 7,0 16 9 26 14 WSW 1016,4 20 0,0
19.01.2018 10:00:00 4,0 2,0 2,7 5,0 6,9 6 4 24 13 WSW 1016,2 20 0,0
19.01.2018 09:00:00 3,7 1,9 2,8 5,1 7,0 13 7 48 26 W 1015,8 20 0,0
19.01.2018 08:00:00 4,0 1,9 3,5 5,1 7,0 16 9 37 20 W 1015,0 20 0,0
19.01.2018 07:00:00 4,3 2,0 3,5 5,1 6,9 18 10 39 21 W 1014,3 20 0,0
19.01.2018 06:00:00 4,6 2,5 3,9 5,1 6,9 18 10 49 26 W 1013,1 20 0,0
19.01.2018 05:00:00 4,6 2,8 3,6 5,1 7,0 22 12 49 26 W 1012,1 20 0,4
19.01.2018 04:00:00 4,4 2,7 3,5 5,1 6,9 30 16 63 34 W 1011,4 4,2 1,0
19.01.2018 03:00:00 6,1 4,4 5,1 5,1 7,0 18 10 42 23 WSW 1010,6 20 0,2
19.01.2018 02:00:00 6,4 5,3 5,0 5,1 7,0 21 11 46 25 WSW 1010,5 20 0,0
19.01.2018 01:00:00 6,0 4,5 5,1 5,0 7,0 22 12 56 31 W 1010,1 6 1,6
19.01.2018 00:00:00 6,6 5,2 5,8 5,0 7,0 23 13 50 27 WNW 1009,4 12 3,0
18.01.2018 23:00:00 6,4 5,7 5,7 5,0 7,0 13 7 38 21 W 1008,6 8 4,9
18.01.2018 22:00:00 6,0 5,4 5,2 4,9 7,1 14 7 26 14 W 1008,7 9 6,0
18.01.2018 21:00:00 5,7 4,8 5,0 4,8 7,1 12 7 56 31 W 1009,3 16 6,1
18.01.2018 20:00:00 8,0 6,3 6,9 4,8 7,1 24 13 78 42 WSW 1008,0 20 1,4
18.01.2018 19:00:00 8,2 5,8 7,2 4,7 7,1 32 18 72 39 SW 1008,0 20 0,0
18.01.2018 18:00:00 8,0 5,3 6,3 4,7 7,1 34 18 74 40 SW 1008,7 20 0,0
18.01.2018 17:00:00 6,9 4,7 5,6 4,6 7,1 33 18 76 41 SW 1009,0 20 0,2
18.01.2018 16:00:00 6,6 5,1 5,9 4,5 7,1 30 16 74 40 SW 1009,3 19 0,0
18.01.2018 15:00:00 6,8 5,1 6,1 4,4 7,1 33 18 64 34 SW 1009,8 10 0,0
18.01.2018 14:00:00 7,0 4,8 5,7 4,4 7,1 35 19 72 39 SW 1010,4 20 0,0
18.01.2018 13:00:00 6,5 4,7 5,1 4,3 7,1 32 18 77 41 WSW 1011,1 18 0,2
18.01.2018 12:00:00 5,7 3,9 5,2 4,3 7,1 37 20 78 42 SW 1011,9 13 0,0
18.01.2018 11:00:00 5,8 3,3 4,2 4,3 7,1 40 22 77 41 SW 1012,0 20 0,0
18.01.2018 10:00:00 5,0 3,0 3,5 4,3 7,1 33 18 76 41 WSW 1011,7 20 0,0
18.01.2018 09:00:00 4,3 2,6 2,8 4,3 7,1 32 17 75 40 SW 1012,0 19 0,4
18.01.2018 08:00:00 3,6 2,0 2,6 4,3 7,1 34 18 67 36 SW 1012,3 20 1,0
18.01.2018 07:00:00 3,5 1,9 2,1 4,3 7,1 29 16 67 36 SW 1012,9 20 1,2
18.01.2018 06:00:00 2,8 1,5 2,0 4,4 7,2 29 16 57 31 SW 1013,6 20 1,4
18.01.2018 05:00:00 2,7 1,4 1,9 4,3 7,1 31 17 59 32 SW 1015,2 17 0,8
18.01.2018 04:00:00 2,8 1,5 2,1 4,4 7,1 23 13 53 28 SW 1016,0 16 0,8
18.01.2018 03:00:00 3,8 0,8 2,7 4,4 7,1 26 14 54 29 SW 1016,8 20 0,0
18.01.2018 02:00:00 4,1 -0,1 2,5 4,4 7,1 23 12 47 26 SW 1017,5 20 0,0
18.01.2018 01:00:00 3,9 0,2 2,0 4,5 7,1 23 12 50 27 WSW 1018,1 20 0,0
18.01.2018 00:00:00 3,3 0,3 1,0 4,5 7,1 22 12 45 25 WSW 1018,2 20 0,2
17.01.2018 23:00:00 1,9 0,4 0,8 4,6 7,1 22 12 54 29 WSW 1018,7 20 0,4
17.01.2018 22:00:00 2,5 -0,3 0,9 4,6 7,1 23 13 56 30 WSW 1018,4 20 0,2
17.01.2018 21:00:00 3,3 -2,0 1,9 4,7 7,1 27 14 48 26 WSW 1018,3 20 0,0
17.01.2018 20:00:00 3,3 -1,8 2,1 4,7 7,1 26 14 56 30 WSW 1017,9 20 0,0
17.01.2018 19:00:00 3,3 -1,8 2,4 4,8 7,1 31 17 61 33 W 1017,3 20 0,0
17.01.2018 18:00:00 3,6 -1,8 2,8 4,8 7,1 27 14 49 26 W 1017,0 20 0,0
17.01.2018 17:00:00 3,7 -1,9 2,8 4,8 7,1 25 14 55 30 W 1016,4 20 0,0
17.01.2018 16:00:00 3,9 -1,9 3,5 4,7 7,1 22 12 53 29 WSW 1015,7 20 0,0
17.01.2018 15:00:00 4,0 -1,6 3,6 4,7 7,1 28 15 56 31 W 1014,7 20 0,0
17.01.2018 14:00:00 3,3 -0,5 2,9 4,7 7,2 20 11 53 29 W 1014,4 20 0,0
17.01.2018 13:00:00 2,7 -0,9 2,8 4,7 7,1 27 15 68 37 W 1014,4 20 0,0
17.01.2018 12:00:00 2,0 -1,8 1,9 4,8 7,2 35 19 69 38 W 1013,6 20 0,0
17.01.2018 11:00:00 2,0 -0,1 1,4 4,8 7,1 29 16 53 29 WSW 1012,3 20 0,0
17.01.2018 10:00:00 2,1 0,0 1,4 4,9 7,2 29 16 60 32 W 1010,7 11 0,2
17.01.2018 09:00:00 2,8 -0,3 1,9 4,9 7,1 34 18 70 38 WSW 1009,2 20 0,0
17.01.2018 08:00:00 2,8 -0,3 2,2 4,9 7,2 24 13 51 28 WSW 1008,2 20 0,0
17.01.2018 07:00:00 2,9 0,1 2,3 5,0 7,2 31 17 58 31 WSW 1006,9 20 0,0
17.01.2018 06:00:00 2,8 -0,1 2,3 5,1 7,2 27 15 59 32 W 1006,2 20 0,0
17.01.2018 05:00:00 2,8 1,0 2,1 5,2 7,2 27 15 54 29 W 1005,2 20 0,0
17.01.2018 04:00:00 2,5 1,3 1,3 5,3 7,2 25 13 53 29 W 1004,6 20 0,0
17.01.2018 03:00:00 2,1 1,2 0,1 5,3 7,2 29 16 73 40 WSW 1003,7 16 6,9
17.01.2018 02:00:00 3,6 2,4 2,5 5,3 7,2 23 12 68 37 W 1002,5 10 2,2
17.01.2018 01:00:00 3,8 2,3 2,4 5,4 7,3 29 16 58 31 W 1003,1 4,9 1,8
17.01.2018 00:00:00 5,8 3,5 4,4 5,4 7,3 23 12 56 30 WSW 1002,9 17 0,0
16.01.2018 23:00:00 5,3 3,5 4,2 5,4 7,3 21 11 44 24 WSW 1003,3 20 2,2
16.01.2018 22:00:00 5,8 4,1 4,8 5,4 7,2 14 7 33 18 W 1004,0 20 0,0
16.01.2018 21:00:00 5,7 4,2 4,7 5,4 7,3 16 9 62 34 W 1004,2 20 0,8
16.01.2018 20:00:00 6,0 4,0 5,0 5,4 7,3 17 9 78 42 W 1004,1 20 1,6
16.01.2018 19:00:00 7,1 5,2 5,3 5,4 7,3 23 13 43 23 WSW 1003,5 12 0,2
16.01.2018 18:00:00 6,1 4,4 4,8 5,3 7,3 19 10 54 29 WSW 1004,1 20 0,0
16.01.2018 17:00:00 5,9 4,4 5,0 5,3 7,3 21 12 55 30 W 1004,3 10 1,6
16.01.2018 16:00:00 6,5 4,3 5,7 5,2 7,3 25 13 55 30 WSW 1004,7 19 0,2
16.01.2018 15:00:00 6,3 4,9 5,3 5,2 7,4 29 16 86 47 W 1004,9 11 6,3
16.01.2018 14:00:00 8,1 5,7 6,8 5,1 7,4 38 21 89 48 WSW 1004,1 8 1,2
16.01.2018 13:00:00 8,2 5,7 7,0 5,0 7,4 38 21 82 44 WSW 1004,1 13 0,4
16.01.2018 12:00:00 8,0 6,1 6,8 5,0 7,4 39 21 77 42 WSW 1003,5 15 1,8
16.01.2018 11:00:00 7,7 6,0 6,5 4,9 7,4 34 18 58 32 WSW 1004,4 15 0,4
16.01.2018 10:00:00 7,5 5,5 6,5 4,9 7,4 34 18 66 36 WSW 1004,8 16 0,2
16.01.2018 09:00:00 7,8 5,3 6,1 4,8 7,4 35 19 76 41 WSW 1004,3 20 0,2
16.01.2018 08:00:00 7,2 5,3 6,2 4,7 7,4 35 19 81 44 SW 1004,1 16 0,2
16.01.2018 07:00:00 7,1 5,4 5,7 4,7 7,4 36 19 69 37 SW 1003,9 20 0,8
16.01.2018 06:00:00 6,6 4,8 5,6 4,7 7,4 33 18 71 38 SW 1003,7 19 0,6
16.01.2018 05:00:00 6,4 5,3 5,4 4,7 7,5 29 16 57 31 SW 1004,8 7 1,4
16.01.2018 04:00:00 6,4 4,7 5,3 4,6 7,5 32 17 80 43 SW 1005,7 15 0,6
16.01.2018 03:00:00 6,2 4,4 5,1 4,6 7,5 28 15 74 40 WSW 1005,9 20 0,0
16.01.2018 02:00:00 6,4 4,1 5,3 4,5 7,5 34 19 74 40 WSW 1006,3 17 0,2
16.01.2018 01:00:00 6,8 3,8 5,6 4,5 7,5 36 20 71 39 WSW 1006,3 17 0,0
16.01.2018 00:00:00 7,1 3,3 5,8 4,5 7,5 29 16 69 38 WSW 1006,8 20 0,0
15.01.2018 23:00:00 6,7 3,1 4,5 4,5 7,5 35 19 71 38 WSW 1007,0 20 0,0
15.01.2018 22:00:00 5,7 3,2 4,4 4,4 7,5 29 16 61 33 SW 1007,5 20 0,2
15.01.2018 21:00:00 5,5 3,3 4,4 4,4 7,5 28 15 58 31 SW 1008,1 20 0,6
15.01.2018 20:00:00 6,0 3,2 4,4 4,3 7,5 28 15 59 32 SW 1008,9 20 0,8
15.01.2018 19:00:00 5,4 3,4 4,3 4,3 7,5 22 12 54 29 SW 1009,7 17 1,6
15.01.2018 18:00:00 7,5 1,6 6,1 4,2 7,5 25 13 49 27 WSW 1010,1 20 0,0
15.01.2018 17:00:00 7,6 1,2 6,7 4,1 7,5 21 11 50 27 SW 1010,8 20 0,0
15.01.2018 16:00:00 7,2 1,3 6,2 4,0 7,5 19 11 41 22 SW 1012,3 20 0,0
15.01.2018 15:00:00 6,2 1,3 6,1 3,9 7,5 10 5 24 13 W 1014,4 20 0,0

tt = Température de l'air
td = dewpoint
tt 5cm = Température de l'air 5cm
tt -20cm = Température de l'air -20cm
tt -100cm = Température de l'air -100cm
ff = Vitesse du vent
fx = gusts
dd = Direction du vent
ppp = reduced air pressure
vv = visibility
rr = Quantités de précipitations

stations d'obs. à proximité